Project,Study,Ord_Occ,Event_Num,Cast_ID,Date_Time_UTC,Date_Time_PST,Lat_Dec,Lon_Dec,Sta_ID,Line,Sta,Depth,Pressure,PrQ,Temp1,Temp1Q,Temp2,Temp2Q,TempAve,Salt1,Salt1Q,Salt1_Corr,Salt2,Salt2Q,Salt2_Corr,SaltAve_Corr,Ox1,Ox1Q,Ox1_CruiseCorr,Ox1_StaCorr,Ox2,Ox2Q,Ox2_CruiseCorr,Ox2_StaCorr,OxAve_StaCorr,Ox1uM,Ox1uM_CruiseCorr,Ox1uM_StaCorr,Ox2uM,Ox2uM_CruiseCorr,Ox2uM_StaCorr,OxAveuM_StaCorr,FluorV,FluorQ,EstChl_CruiseCorr,EstChl_StaCorr,ISUSV,ISUSQ,EstNO3_CruiseCorr,EstNO3_StaCorr,SigThetaTS1,SigThetaTS1Q,SigThetaTS2,SigThetaTS2Q,BAT,XMiss,TransQ,pH,pHQ,SPAR,SPARQ,PAR,PARQ,PoT1,PoT2,DynHt,SVA,OxSat1,OxSat2,BTL_Depth,BTL_Temp,SaltB,OxB,OxBuM,Chl-a,Phaeo,NO3,NO2,NH4,PO4,SIL
CalCOFI,2007SR,022,23,2007_022u,17-Jul-2020 17:49:26,17-Jul-2020 09:49:26,31.75202,-121.31466,090.0 080.0,090.0,080.0,515.000,519.254,,5.9342,,5.9308,,5.9325,34.2245,,34.2247,34.2264,,34.2280,34.2264,0.4523,,0.4549,0.4977,2.0491,,0.9506,1.1071,0.8024,19.669,20.0444,21.2236,89.109,,48.3561,34.7899,,,,,,,,,26.9538,,26.9557,,0.6265,85.5034,,7.524,,1.5951E+03,,1.0000E-12,,5.8892,5.8859,0.9860,,6.503,29.459,,,,,,,,,,,,
CalCOFI,2007SR,022,23,2007_022u,17-Jul-2020 17:49:29,17-Jul-2020 09:49:29,31.75202,-121.31466,090.0 080.0,090.0,080.0,514.000,518.244,,5.9563,,5.9525,,5.9544,34.2253,,34.2255,34.2274,,34.2290,34.2273,0.4536,,0.4563,0.4991,2.0423,,0.9344,1.0897,0.7944,19.728,20.1060,21.2851,88.813,,47.6048,34.4450,,,,,,,,,26.9516,,26.9538,,0.6265,85.5034,,7.524,,1.5878E+03,,1.0000E-12,,5.9114,5.9075,0.9860,,6.526,29.377,514,5.956,,0.462,20.17,,,44.12,0.102,0.15,3.29,84.37
CalCOFI,2007SR,022,23,2007_022u,17-Jul-2020 17:49:39,17-Jul-2020 09:49:39,31.75202,-121.31466,090.0 080.0,090.0,080.0,513.000,517.234,,5.9439,,5.9429,,5.9434,34.2244,,34.2246,34.2259,,34.2275,34.2261,0.4549,,0.4576,0.5004,2.0245,,0.8919,1.0442,0.7723,19.782,20.1623,21.3413,88.039,,45.6401,33.4907,,,,,,,,,26.9525,,26.9537,,0.6268,85.4970,,7.524,,1.5832E+03,,1.0000E-12,,5.8991,5.8981,0.9877,,6.542,29.114,,,,,,,,,,,,
CalCOFI,2007SR,022,23,2007_022u,17-Jul-2020 17:49:42,17-Jul-2020 09:49:42,31.75202,-121.31466,090.0 080.0,090.0,080.0,512.000,516.225,,5.9439,,5.9436,,5.9438,34.2241,,34.2243,34.2256,,34.2272,34.2258,0.4531,,0.4557,0.4986,2.0187,,0.8780,1.0294,0.7640,19.704,20.0809,21.2601,87.787,,45.0004,33.1303,,,,,,,,,26.9522,,26.9534,,0.6265,85.5037,,7.524,,1.5887E+03,,1.0000E-12,,5.8992,5.8989,0.9879,,6.516,29.031,,,,,,,,,,,,
CalCOFI,2007SR,022,23,2007_022u,17-Jul-2020 17:49:44,17-Jul-2020 09:49:44,31.75202,-121.31466,090.0 080.0,090.0,080.0,511.000,515.215,,5.9889,,5.9934,,5.9912,34.2287,,34.2289,34.2316,,34.2332,34.2311,0.4487,,0.4511,0.4940,2.0119,,0.8618,1.0120,0.7530,19.511,19.8794,21.0590,87.493,,44.2542,32.6566,,,,,,,,,26.9502,,26.9519,,0.6273,85.4857,,7.524,,1.5943E+03,,1.0000E-12,,5.9441,5.9485,0.9879,,6.459,28.968,,,,,,,,,,,,
CalCOFI,2007SR,022,23,2007_022u,17-Jul-2020 17:49:45,17-Jul-2020 09:49:45,31.75202,-121.31465,090.0 080.0,090.0,080.0,510.000,514.206,,6.0161,,6.0163,,6.0162,34.2308,,34.2310,34.2327,,34.2343,34.2327,0.4451,,0.4474,0.4902,2.0089,,0.8546,1.0044,0.7473,19.358,19.7197,20.8997,87.362,,43.9216,32.4107,,,,,,,,,26.9484,,26.9499,,0.6271,85.4912,,7.524,,1.5958E+03,,1.0000E-12,,5.9713,5.9715,0.9879,,6.412,28.940,,,,,,,,,,,,
CalCOFI,2007SR,022,23,2007_022u,17-Jul-2020 17:49:46,17-Jul-2020 09:49:46,31.75202,-121.31466,090.0 080.0,090.0,080.0,509.000,513.196,,6.0231,,6.0238,,6.0235,34.2318,,34.2320,34.2336,,34.2352,34.2336,0.4514,,0.4540,0.4968,2.0075,,0.8513,1.0008,0.7488,19.631,20.0047,21.1840,87.304,,43.7744,32.4792,,,,,,,,,26.9483,,26.9497,,0.6265,85.5025,,7.524,,1.5943E+03,,1.0000E-12,,5.9784,5.9791,0.9879,,6.504,28.927,,,,,,,,,,,,
CalCOFI,2007SR,022,23,2007_022u,17-Jul-2020 17:49:47,17-Jul-2020 09:49:47,31.75202,-121.31466,090.0 080.0,090.0,080.0,508.000,512.187,,6.0267,,6.0269,,6.0268,34.2319,,34.2321,34.2331,,34.2347,34.2334,0.4586,,0.4615,0.5043,1.9987,,0.8303,0.9783,0.7413,19.945,20.3325,21.5111,86.921,,42.8022,32.1567,,,,,,,,,26.9480,,26.9489,,0.6265,85.5034,,7.524,,1.5908E+03,,1.0000E-12,,5.9820,5.9822,0.9879,,6.609,28.801,,,,,,,,,,,,
CalCOFI,2007SR,022,23,2007_022u,17-Jul-2020 17:49:48,17-Jul-2020 09:49:48,31.75202,-121.31466,090.0 080.0,090.0,080.0,507.000,511.178,,6.0150,,6.0150,,6.0150,34.2286,,34.2288,34.2297,,34.2313,34.2301,0.4636,,0.4667,0.5095,2.0046,,0.8444,0.9934,0.7515,20.163,20.5601,21.7382,87.177,,43.4520,32.5951,,,,,,,,,26.9468,,26.9477,,0.6265,85.5034,,7.524,,1.5853E+03,,1.0000E-12,,5.9705,5.9705,0.9879,,6.679,28.878,,,,,,,,,,,,
CalCOFI,2007SR,022,23,2007_022u,17-Jul-2020 17:49:49,17-Jul-2020 09:49:49,31.75202,-121.31466,090.0 080.0,090.0,080.0,506.000,510.168,,6.0040,,6.0038,,6.0039,34.2253,,34.2255,34.2260,,34.2276,34.2266,0.4667,,0.4700,0.5127,2.0033,,0.8413,0.9900,0.7514,20.295,20.6979,21.8757,87.121,,43.3099,32.5928,,,,,,,,,26.9456,,26.9461,,0.6265,85.5034,,7.524,,1.5799E+03,,1.0000E-12,,5.9596,5.9594,0.9879,,6.721,28.851,,,,,,,,,,,,
CalCOFI,2007SR,022,23,2007_022u,17-Jul-2020 17:49:50,17-Jul-2020 09:49:50,31.75202,-121.31466,090.0 080.0,090.0,080.0,505.000,509.159,,6.0010,,6.0025,,6.0018,34.2241,,34.2243,34.2263,,34.2279,34.2261,0.4670,,0.4703,0.5130,2.0036,,0.8420,0.9908,0.7519,20.310,20.7135,21.8913,87.134,,43.3429,32.6171,,,,,,,,,26.9450,,26.9465,,0.6265,85.5034,,7.524,,1.5770E+03,,1.0000E-12,,5.9567,5.9582,0.9879,,6.726,28.854,,,,,,,,,,,,
CalCOFI,2007SR,022,23,2007_022u,17-Jul-2020 17:49:51,17-Jul-2020 09:49:51,31.75202,-121.31466,090.0 080.0,090.0,080.0,504.000,508.149,,6.0185,,6.0186,,6.0186,34.2245,,34.2247,34.2256,,34.2272,34.2260,0.4710,,0.4744,0.5172,1.9956,,0.8229,0.9703,0.7438,20.481,20.8920,22.0694,86.787,,42.4621,32.2658,,,,,,,,,26.9430,,26.9439,,0.6265,85.5034,,7.524,,1.5788E+03,,1.0000E-12,,5.9742,5.9743,0.9879,,6.785,28.750,,,,,,,,,,,,
CalCOFI,2007SR,022,23,2007_022u,17-Jul-2020 17:49:52,17-Jul-2020 09:49:52,31.75202,-121.31466,090.0 080.0,090.0,080.0,503.000,507.140,,6.0094,,6.0098,,6.0096,34.2213,,34.2215,34.2226,,34.2242,34.2229,0.4714,,0.4749,0.5176,2.0000,,0.8334,0.9816,0.7496,20.499,20.9108,22.0882,86.975,,42.9393,32.5138,,,,,,,,,26.9417,,26.9427,,0.6265,85.5034,,7.524,,1.5850E+03,,1.0000E-12,,5.9653,5.9657,0.9879,,6.789,28.806,,,,,,,,,,,,
CalCOFI,2007SR,022,23,2007_022u,17-Jul-2020 17:49:54,17-Jul-2020 09:49:54,31.75202,-121.31466,090.0 080.0,090.0,080.0,502.000,506.130,,6.0068,,6.0065,,6.0067,34.2207,,34.2209,34.2220,,34.2236,34.2223,0.4737,,0.4773,0.5200,1.9920,,0.8143,0.9611,0.7406,20.601,21.0173,22.1944,86.628,,42.0585,32.1265,,,,,,,,,26.9415,,26.9426,,0.6265,85.5034,,7.524,,1.5900E+03,,1.0000E-12,,5.9627,5.9624,0.9879,,6.823,28.689,,,,,,,,,,,,
CalCOFI,2007SR,022,23,2007_022u,17-Jul-2020 17:49:55,17-Jul-2020 09:49:55,31.75202,-121.31464,090.0 080.0,090.0,080.0,501.000,505.121,,6.0207,,6.0200,,6.0204,34.2224,,34.2226,34.2243,,34.2259,34.2243,0.4731,,0.4766,0.5194,1.9910,,0.8119,0.9586,0.7390,20.576,20.9912,22.1684,86.585,,41.9493,32.0589,,,,,,,,,26.9411,,26.9427,,0.6265,85.5034,,7.524,,1.5901E+03,,1.0000E-12,,5.9767,5.9760,0.9879,,6.816,28.684,,,,,,,,,,,,
CalCOFI,2007SR,022,23,2007_022u,17-Jul-2020 17:49:56,17-Jul-2020 09:49:56,31.75202,-121.31465,090.0 080.0,090.0,080.0,500.000,504.111,,6.0400,,6.0398,,6.0399,34.2229,,34.2231,34.2245,,34.2261,34.2246,0.4702,,0.4736,0.5163,1.9934,,0.8176,0.9647,0.7405,20.449,20.8586,22.0361,86.690,,42.2159,32.1260,,,,,,,,,26.9391,,26.9404,,0.6265,85.5034,,7.525,,1.5900E+03,,1.0000E-12,,5.9960,5.9958,0.9879,,6.777,28.732,,,,,,,,,,,,
CalCOFI,2007SR,022,23,2007_022u,17-Jul-2020 17:49:57,17-Jul-2020 09:49:57,31.75202,-121.31466,090.0 080.0,090.0,080.0,499.000,503.102,,6.0406,,6.0406,,6.0406,34.2228,,34.2230,34.2241,,34.2257,34.2244,0.4777,,0.4814,0.5241,1.9928,,0.8162,0.9632,0.7437,20.773,21.1968,22.3736,86.665,,42.1524,32.2630,,,,,,,,,26.9389,,26.9400,,0.6265,85.5034,,7.524,,1.5878E+03,,1.0000E-12,,5.9967,5.9967,0.9879,,6.885,28.724,,,,,,,,,,,,
CalCOFI,2007SR,022,23,2007_022u,17-Jul-2020 17:49:58,17-Jul-2020 09:49:58,31.75202,-121.31466,090.0 080.0,090.0,080.0,498.000,502.092,,6.0430,,6.0434,,6.0432,34.2231,,34.2233,34.2245,,34.2261,34.2247,0.4906,,0.4949,0.5375,1.9889,,0.8069,0.9532,0.7454,21.334,21.7825,22.9579,86.492,,41.7133,32.3356,,,,,,,,,26.9389,,26.9399,,0.6265,85.5034,,7.524,,1.5855E+03,,1.0000E-12,,5.9992,5.9996,0.9879,,7.071,28.669,,,,,,,,,,,,
CalCOFI,2007SR,022,23,2007_022u,17-Jul-2020 17:49:59,17-Jul-2020 09:49:59,31.75202,-121.31466,090.0 080.0,090.0,080.0,497.000,501.083,,6.0420,,6.0422,,6.0421,34.2194,,34.2196,34.2200,,34.2216,34.2206,0.4949,,0.4994,0.5420,1.9833,,0.7935,0.9389,0.7405,21.524,21.9808,23.1558,86.250,,41.0990,32.1274,,,,,,,,,26.9360,,26.9365,,0.6265,85.5034,,7.524,,1.5827E+03,,1.0000E-12,,5.9983,5.9985,0.9879,,7.134,28.587,,,,,,,,,,,,
CalCOFI,2007SR,022,23,2007_022u,17-Jul-2020 17:50:00,17-Jul-2020 09:50:00,31.75202,-121.31466,090.0 080.0,090.0,080.0,496.000,500.074,,6.0065,,6.0072,,6.0069,34.2105,,34.2107,34.2123,,34.2139,34.2123,0.4938,,0.4983,0.5409,1.9857,,0.7993,0.9450,0.7430,21.476,21.9307,23.1058,86.355,,41.3655,32.2357,,,,,,,,,26.9334,,26.9347,,0.6265,85.5034,,7.524,,1.5801E+03,,1.0000E-12,,5.9630,5.9637,0.9879,,7.112,28.596,,,,,,,,,,,,
CalCOFI,2007SR,022,23,2007_022u,17-Jul-2020 17:50:00,17-Jul-2020 09:50:00,31.75202,-121.31466,090.0 080.0,090.0,080.0,495.000,499.064,,6.0267,,6.0284,,6.0276,34.2144,,34.2146,34.2163,,34.2179,34.2163,0.4938,,0.4983,0.5409,1.9874,,0.8033,0.9494,0.7452,21.473,21.9276,23.1027,86.428,,41.5508,32.3268,,,,,,,,,26.9340,,26.9353,,0.6265,85.5034,,7.524,,1.5786E+03,,1.0000E-12,,5.9832,5.9849,0.9879,,7.114,28.636,,,,,,,,,,,,
CalCOFI,2007SR,022,23,2007_022u,17-Jul-2020 17:50:01,17-Jul-2020 09:50:01,31.75202,-121.31466,090.0 080.0,090.0,080.0,494.000,498.055,,6.0481,,6.0499,,6.0490,34.2160,,34.2162,34.2180,,34.2196,34.2179,0.4914,,0.4958,0.5384,1.9856,,0.7990,0.9448,0.7416,21.371,21.8211,22.9965,86.352,,41.3579,32.1772,,,,,,,,,26.9325,,26.9339,,0.6265,85.5034,,7.525,,1.5786E+03,,1.0000E-12,,6.0046,6.0064,0.9879,,7.084,28.625,,,,,,,,,,,,
CalCOFI,2007SR,022,23,2007_022u,17-Jul-2020 17:50:02,17-Jul-2020 09:50:02,31.75202,-121.31466,090.0 080.0,090.0,080.0,493.000,497.045,,6.0518,,6.0526,,6.0522,34.2154,,34.2156,34.2168,,34.2184,34.2170,0.4954,,0.4999,0.5425,1.9775,,0.7797,0.9241,0.7333,21.544,22.0017,23.1767,85.997,,40.4568,31.8168,,,,,,,,,26.9316,,26.9326,,0.6265,85.5034,,7.525,,1.5805E+03,,1.0000E-12,,6.0084,6.0092,0.9879,,7.142,28.509,,,,,,,,,,,,
CalCOFI,2007SR,022,23,2007_022u,17-Jul-2020 17:50:03,17-Jul-2020 09:50:03,31.75202,-121.31466,090.0 080.0,090.0,080.0,492.000,496.036,,6.0540,,6.0545,,6.0543,34.2150,,34.2152,34.2168,,34.2184,34.2168,0.4896,,0.4939,0.5365,1.9766,,0.7775,0.9218,0.7292,21.291,21.7376,22.9131,85.962,,40.3679,31.6405,,,,,,,,,26.9309,,26.9323,,0.6265,85.5034,,7.525,,1.5837E+03,,1.0000E-12,,6.0107,6.0112,0.9879,,7.058,28.499,,,,,,,,,,,,
CalCOFI,2007SR,022,23,2007_022u,17-Jul-2020 17:50:04,17-Jul-2020 09:50:04,31.75202,-121.31466,090.0 080.0,090.0,080.0,491.000,495.026,,6.0757,,6.0788,,6.0773,34.2174,,34.2176,34.2202,,34.2218,34.2197,0.4821,,0.4860,0.5287,1.9789,,0.7830,0.9277,0.7282,20.965,21.3973,22.5736,86.059,,40.6142,31.5939,,,,,,,,,26.9301,,26.9320,,0.6265,85.5034,,7.525,,1.5862E+03,,1.0000E-12,,6.0324,6.0355,0.9879,,6.954,28.547,,,,,,,,,,,,
CalCOFI,2007SR,022,23,2007_022u,17-Jul-2020 17:50:06,17-Jul-2020 09:50:06,31.75202,-121.31466,090.0 080.0,090.0,080.0,490.000,494.017,,6.1378,,6.1393,,6.1386,34.2254,,34.2256,34.2280,,34.2296,34.2276,0.4790,,0.4828,0.5255,1.9706,,0.7632,0.9064,0.7160,20.831,21.2574,22.4340,85.701,,39.7054,31.0697,,,,,,,,,26.9286,,26.9304,,0.6268,85.4961,,7.525,,1.5882E+03,,1.0000E-12,,6.0943,6.0958,0.9879,,6.920,28.470,,,,,,,,,,,,
CalCOFI,2007SR,022,23,2007_022u,17-Jul-2020 17:50:07,17-Jul-2020 09:50:07,31.75202,-121.31466,090.0 080.0,090.0,080.0,489.000,493.008,,6.1669,,6.1659,,6.1664,34.2267,,34.2269,34.2282,,34.2298,34.2284,0.4765,,0.4802,0.5229,1.9650,,0.7498,0.8921,0.7075,20.724,21.1457,22.3225,85.456,,39.0835,30.7030,,,,,,,,,26.9259,,26.9272,,0.6266,85.5016,,7.526,,1.5864E+03,,1.0000E-12,,6.1235,6.1224,0.9879,,6.889,28.406,,,,,,,,,,,,
CalCOFI,2007SR,022,23,2007_022u,17-Jul-2020 17:50:08,17-Jul-2020 09:50:08,31.75202,-121.31466,090.0 080.0,090.0,080.0,488.000,491.998,,6.1694,,6.1692,,6.1693,34.2273,,34.2275,34.2287,,34.2303,34.2289,0.4733,,0.4769,0.5196,1.9653,,0.7506,0.8929,0.7063,20.582,20.9974,22.1746,85.468,,39.1140,30.6443,,,,,,,,,26.9260,,26.9272,,0.6265,85.5034,,7.527,,1.5851E+03,,1.0000E-12,,6.1260,6.1258,0.9879,,6.842,28.413,,,,,,,,,,,,
CalCOFI,2007SR,022,23,2007_022u,17-Jul-2020 17:50:09,17-Jul-2020 09:50:09,31.75202,-121.31466,090.0 080.0,090.0,080.0,487.000,490.989,,6.1701,,6.1707,,6.1704,34.2270,,34.2272,34.2286,,34.2302,34.2287,0.4786,,0.4824,0.5251,1.9674,,0.7556,0.8982,0.7117,20.813,21.2386,22.4152,85.561,,39.3501,30.8827,,,,,,,,,26.9257,,26.9269,,0.6266,85.5023,,7.527,,1.5820E+03,,1.0000E-12,,6.1268,6.1274,0.9879,,6.919,28.445,,,,,,,,,,,,
CalCOFI,2007SR,022,23,2007_022u,17-Jul-2020 17:50:10,17-Jul-2020 09:50:10,31.75202,-121.31466,090.0 080.0,090.0,080.0,486.000,489.980,,6.1836,,6.1859,,6.1848,34.2293,,34.2295,34.2314,,34.2330,34.2313,0.4750,,0.4786,0.5213,1.9665,,0.7534,0.8959,0.7086,20.656,21.0747,22.2517,85.522,,39.2511,30.7514,,,,,,,,,26.9258,,26.9272,,0.6269,85.4951,,7.526,,1.5791E+03,,1.0000E-12,,6.1403,6.1426,0.9879,,6.869,28.442,,,,,,,,,,,,
CalCOFI,2007SR,022,23,2007_022u,17-Jul-2020 17:50:10,17-Jul-2020 09:50:10,31.75202,-121.31466,090.0 080.0,090.0,080.0,485.000,488.970,,6.2031,,6.2029,,6.2030,34.2301,,34.2303,34.2318,,34.2334,34.2319,0.4691,,0.4725,0.5152,1.9648,,0.7494,0.8916,0.7034,20.400,20.8075,21.9850,85.447,,39.0607,30.5229,,,,,,,,,26.9239,,26.9253,,0.6271,85.4910,,7.526,,1.5778E+03,,1.0000E-12,,6.1599,6.1597,0.9879,,6.787,28.428,,,,,,,,,,,,
CalCOFI,2007SR,022,23,2007_022u,17-Jul-2020 17:50:11,17-Jul-2020 09:50:11,31.75202,-121.31466,090.0 080.0,090.0,080.0,484.000,487.961,,6.2168,,6.2171,,6.2170,34.2311,,34.2313,34.2329,,34.2345,34.2329,0.4730,,0.4765,0.5192,1.9620,,0.7427,0.8844,0.7018,20.572,20.9870,22.1642,85.327,,38.7561,30.4602,,,,,,,,,26.9230,,26.9243,,0.6271,85.4911,,7.527,,1.5787E+03,,1.0000E-12,,6.1736,6.1739,0.9879,,6.847,28.398,,,,,,,,,,,,
CalCOFI,2007SR,022,23,2007_022u,17-Jul-2020 17:50:12,17-Jul-2020 09:50:12,31.75202,-121.31466,090.0 080.0,090.0,080.0,483.000,486.951,,6.2257,,6.2259,,6.2258,34.2314,,34.2316,34.2331,,34.2347,34.2332,0.4741,,0.4777,0.5204,1.9574,,0.7317,0.8727,0.6966,20.619,21.0361,22.2132,85.123,,38.2383,30.2258,,,,,,,,,26.9220,,26.9233,,0.6274,85.4850,,7.527,,1.5822E+03,,1.0000E-12,,6.1826,6.1828,0.9879,,6.863,28.336,,,,,,,,,,,,
CalCOFI,2007SR,022,23,2007_022u,17-Jul-2020 17:50:14,17-Jul-2020 09:50:14,31.75202,-121.31466,090.0 080.0,090.0,080.0,482.000,485.942,,6.2303,,6.2303,,6.2303,34.2316,,34.2318,34.2331,,34.2347,34.2333,0.4785,,0.4823,0.5250,1.9551,,0.7262,0.8668,0.6959,20.808,21.2334,22.4100,85.025,,37.9895,30.1998,,,,,,,,,26.9216,,26.9227,,0.6275,85.4814,,7.527,,1.5857E+03,,1.0000E-12,,6.1872,6.1873,0.9879,,6.927,28.306,,,,,,,,,,,,
CalCOFI,2007SR,022,23,2007_022u,17-Jul-2020 17:50:15,17-Jul-2020 09:50:15,31.75202,-121.31466,090.0 080.0,090.0,080.0,481.000,484.933,,6.2314,,6.2316,,6.2315,34.2309,,34.2311,34.2322,,34.2338,34.2325,0.4836,,0.4876,0.5303,1.9579,,0.7329,0.8740,0.7022,21.030,21.4651,22.6413,85.147,,38.2992,30.4703,,,,,,,,,26.9209,,26.9219,,0.6266,85.5003,,7.528,,1.5854E+03,,1.0000E-12,,6.1884,6.1887,0.9879,,7.001,28.348,,,,,,,,,,,,
CalCOFI,2007SR,022,23,2007_022u,17-Jul-2020 17:50:16,17-Jul-2020 09:50:16,31.75202,-121.31466,090.0 080.0,090.0,080.0,480.000,483.923,,6.2391,,6.2406,,6.2399,34.2301,,34.2303,34.2320,,34.2336,34.2320,0.4861,,0.4902,0.5329,1.9572,,0.7312,0.8722,0.7026,21.139,21.5789,22.7548,85.116,,38.2205,30.4877,,,,,,,,,26.9193,,26.9206,,0.6267,85.4995,,7.528,,1.5825E+03,,1.0000E-12,,6.1962,6.1977,0.9879,,7.039,28.343,,,,,,,,,,,,
CalCOFI,2007SR,022,23,2007_022u,17-Jul-2020 17:50:17,17-Jul-2020 09:50:17,31.75202,-121.31466,090.0 080.0,090.0,080.0,479.000,482.914,,6.2608,,6.2626,,6.2617,34.2292,,34.2294,34.2304,,34.2320,34.2307,0.4867,,0.4909,0.5335,1.9557,,0.7276,0.8683,0.7009,21.165,21.6060,22.7819,85.052,,38.0580,30.4200,,,,,,,,,26.9157,,26.9165,,0.6267,85.4991,,7.528,,1.5791E+03,,1.0000E-12,,6.2179,6.2197,0.9879,,7.051,28.336,,,,,,,,,,,,
CalCOFI,2007SR,022,23,2007_022u,17-Jul-2020 17:50:18,17-Jul-2020 09:50:18,31.75202,-121.31466,090.0 080.0,090.0,080.0,478.000,481.905,,6.2706,,6.2700,,6.2703,34.2287,,34.2289,34.2300,,34.2316,34.2303,0.4896,,0.4939,0.5365,1.9518,,0.7183,0.8584,0.6975,21.293,21.7397,22.9152,84.882,,37.6265,30.2709,,,,,,,,,26.9141,,26.9152,,0.6266,85.5023,,7.528,,1.5773E+03,,1.0000E-12,,6.2278,6.2272,0.9879,,7.095,28.284,,,,,,,,,,,,
CalCOFI,2007SR,022,23,2007_022u,17-Jul-2020 17:50:19,17-Jul-2020 09:50:19,31.75202,-121.31466,090.0 080.0,090.0,080.0,477.000,480.895,,6.2731,,6.2743,,6.2737,34.2288,,34.2290,34.2303,,34.2319,34.2305,0.4916,,0.4960,0.5386,1.9487,,0.7109,0.8504,0.6945,21.377,21.8274,23.0027,84.750,,37.2915,30.1471,,,,,,,,,26.9138,,26.9149,,0.6271,85.4903,,7.528,,1.5767E+03,,1.0000E-12,,6.2304,6.2315,0.9879,,7.124,28.243,,,,,,,,,,,,
CalCOFI,2007SR,022,23,2007_022u,17-Jul-2020 17:50:20,17-Jul-2020 09:50:20,31.75202,-121.31466,090.0 080.0,090.0,080.0,476.000,479.886,,6.2791,,6.2791,,6.2791,34.2281,,34.2283,34.2295,,34.2311,34.2297,0.5015,,0.5063,0.5489,1.9486,,0.7107,0.8502,0.6996,21.808,22.2773,23.4517,84.744,,37.2762,30.3640,,,,,,,,,26.9125,,26.9136,,0.6268,85.4962,,7.528,,1.5769E+03,,1.0000E-12,,6.2364,6.2364,0.9879,,7.268,28.244,,,,,,,,,,,,
CalCOFI,2007SR,022,23,2007_022u,17-Jul-2020 17:50:21,17-Jul-2020 09:50:21,31.75202,-121.31466,090.0 080.0,090.0,080.0,475.000,478.877,,6.2798,,6.2799,,6.2799,34.2262,,34.2264,34.2274,,34.2290,34.2277,0.5132,,0.5185,0.5610,1.9458,,0.7040,0.8430,0.7020,22.319,22.8107,23.9840,84.623,,36.9691,30.4766,,,,,,,,,26.9109,,26.9119,,0.6272,85.4890,,7.528,,1.5786E+03,,1.0000E-12,,6.2372,6.2374,0.9879,,7.438,28.204,,,,,,,,,,,,
CalCOFI,2007SR,022,23,2007_022u,17-Jul-2020 17:50:22,17-Jul-2020 09:50:22,31.75202,-121.31466,090.0 080.0,090.0,080.0,474.000,477.867,,6.2799,,6.2801,,6.2800,34.2247,,34.2249,34.2263,,34.2279,34.2264,0.5249,,0.5308,0.5732,1.9486,,0.7107,0.8502,0.7117,22.828,23.3420,24.5141,84.744,,37.2762,30.8952,,,,,,,,,26.9097,,26.9110,,0.6275,85.4820,,7.528,,1.5786E+03,,1.0000E-12,,6.2374,6.2376,0.9879,,7.608,28.244,,,,,,,,,,,,
CalCOFI,2007SR,022,23,2007_022u,17-Jul-2020 17:50:23,17-Jul-2020 09:50:23,31.75202,-121.31466,090.0 080.0,090.0,080.0,473.000,476.858,,6.2848,,6.2843,,6.2846,34.2198,,34.2200,34.2209,,34.2225,34.2213,0.5288,,0.5348,0.5773,1.9472,,0.7074,0.8466,0.7120,22.998,23.5195,24.6912,84.682,,37.1189,30.9051,,,,,,,,,26.9052,,26.9061,,0.6274,85.4833,,7.528,,1.5769E+03,,1.0000E-12,,6.2424,6.2419,0.9879,,7.665,28.225,,,,,,,,,,,,
CalCOFI,2007SR,022,23,2007_022u,17-Jul-2020 17:50:23,17-Jul-2020 09:50:23,31.75202,-121.31466,090.0 080.0,090.0,080.0,472.000,475.849,,6.2619,,6.2623,,6.2621,34.2135,,34.2137,34.2152,,34.2168,34.2153,0.5354,,0.5417,0.5841,1.9486,,0.7107,0.8502,0.7172,23.283,23.8170,24.9881,84.743,,37.2737,31.1309,,,,,,,,,26.9031,,26.9045,,0.6276,85.4798,,7.528,,1.5767E+03,,1.0000E-12,,6.2197,6.2200,0.9879,,7.756,28.230,,,,,,,,,,,,
CalCOFI,2007SR,022,23,2007_022u,17-Jul-2020 17:50:24,17-Jul-2020 09:50:24,31.75202,-121.31466,090.0 080.0,090.0,080.0,471.000,474.839,,6.2649,,6.2652,,6.2651,34.2135,,34.2137,34.2146,,34.2162,34.2150,0.5398,,0.5463,0.5887,1.9475,,0.7081,0.8474,0.7181,23.476,24.0185,25.1891,84.696,,37.1544,31.1718,,,,,,,,,26.9027,,26.9036,,0.6273,85.4872,,7.528,,1.5748E+03,,1.0000E-12,,6.2228,6.2230,0.9879,,7.821,28.216,,,,,,,,,,,,
CalCOFI,2007SR,022,23,2007_022u,17-Jul-2020 17:50:25,17-Jul-2020 09:50:25,31.75202,-121.31466,090.0 080.0,090.0,080.0,470.000,473.830,,6.2708,,6.2702,,6.2705,34.2110,,34.2112,34.2124,,34.2140,34.2126,0.5389,,0.5454,0.5878,1.9416,,0.6940,0.8323,0.7101,23.436,23.9767,25.1475,84.438,,36.4995,30.8235,,,,,,,,,26.9000,,26.9012,,0.6267,85.4996,,7.528,,1.5734E+03,,1.0000E-12,,6.2287,6.2281,0.9879,,7.808,28.133,,,,,,,,,,,,
CalCOFI,2007SR,022,23,2007_022u,17-Jul-2020 17:50:27,17-Jul-2020 09:50:27,31.75202,-121.31466,090.0 080.0,090.0,080.0,469.000,472.821,,6.2776,,6.2782,,6.2779,34.2103,,34.2105,34.2126,,34.2142,34.2124,0.5347,,0.5410,0.5834,1.9447,,0.7014,0.8402,0.7118,23.253,23.7857,24.9568,84.573,,36.8422,30.8995,,,,,,,,,26.8986,,26.9003,,0.6269,85.4938,,7.528,,1.5712E+03,,1.0000E-12,,6.2356,6.2362,0.9879,,7.748,28.183,,,,,,,,,,,,
CalCOFI,2007SR,022,23,2007_022u,17-Jul-2020 17:50:28,17-Jul-2020 09:50:28,31.75202,-121.31466,090.0 080.0,090.0,080.0,468.000,471.811,,6.3101,,6.3088,,6.3095,34.2139,,34.2141,34.2160,,34.2176,34.2159,0.5334,,0.5396,0.5820,1.9407,,0.6918,0.8300,0.7060,23.200,23.7304,24.9016,84.401,,36.4056,30.6536,,,,,,,,,26.8972,,26.8990,,0.6267,85.4984,,7.530,,1.5710E+03,,1.0000E-12,,6.2681,6.2668,0.9879,,7.737,28.146,,,,,,,,,,,,
CalCOFI,2007SR,022,23,2007_022u,17-Jul-2020 17:50:30,17-Jul-2020 09:50:30,31.75202,-121.31466,090.0 080.0,090.0,080.0,467.000,470.802,,6.3269,,6.3264,,6.3267,34.2150,,34.2152,34.2165,,34.2181,34.2167,0.5439,,0.5506,0.5930,1.9381,,0.6856,0.8233,0.7082,23.655,24.2054,25.3756,84.288,,36.1187,30.7472,,,,,,,,,26.8959,,26.8972,,0.6271,85.4914,,7.531,,1.5724E+03,,1.0000E-12,,6.2849,6.2844,0.9879,,7.892,28.120,,,,,,,,,,,,
CalCOFI,2007SR,022,23,2007_022u,17-Jul-2020 17:50:31,17-Jul-2020 09:50:31,31.75202,-121.31466,090.0 080.0,090.0,080.0,466.000,469.793,,6.3371,,6.3374,,6.3373,34.2152,,34.2154,34.2167,,34.2183,34.2169,0.5517,,0.5588,0.6011,1.9421,,0.6952,0.8336,0.7174,23.994,24.5592,25.7287,84.461,,36.5579,31.1433,,,,,,,,,26.8947,,26.8959,,0.6265,85.5037,,7.531,,1.5740E+03,,1.0000E-12,,6.2952,6.2955,0.9879,,8.007,28.185,,,,,,,,,,,,
CalCOFI,2007SR,022,23,2007_022u,17-Jul-2020 17:50:31,17-Jul-2020 09:50:31,31.75202,-121.31466,090.0 080.0,090.0,080.0,465.000,468.784,,6.3440,,6.3439,,6.3440,34.2125,,34.2127,34.2140,,34.2156,34.2142,0.5595,,0.5669,0.6092,1.9427,,0.6966,0.8351,0.7222,24.332,24.9121,26.0808,84.488,,36.6264,31.3536,,,,,,,,,26.8917,,26.8929,,0.6265,85.5034,,7.531,,1.5738E+03,,1.0000E-12,,6.3021,6.3021,0.9879,,8.120,28.197,,,,,,,,,,,,
CalCOFI,2007SR,022,23,2007_022u,17-Jul-2020 17:50:32,17-Jul-2020 09:50:32,31.75202,-121.31466,090.0 080.0,090.0,080.0,464.000,467.774,,6.3442,,6.3445,,6.3444,34.2119,,34.2121,34.2132,,34.2148,34.2135,0.5695,,0.5774,0.6196,1.9387,,0.6871,0.8249,0.7223,24.767,25.3662,26.5339,84.316,,36.1898,31.3619,,,,,,,,,26.8912,,26.8922,,0.6275,85.4826,,7.532,,1.5729E+03,,1.0000E-12,,6.3024,6.3027,0.9879,,8.266,28.140,,,,,,,,,,,,
CalCOFI,2007SR,022,23,2007_022u,17-Jul-2020 17:50:33,17-Jul-2020 09:50:33,31.75202,-121.31466,090.0 080.0,090.0,080.0,463.000,466.765,,6.3400,,6.3387,,6.3394,34.2095,,34.2097,34.2096,,34.2112,34.2105,0.5806,,0.5890,0.6311,1.9451,,0.7023,0.8412,0.7362,25.250,25.8704,27.0370,84.595,,36.8980,31.9675,,,,,,,,,26.8898,,26.8901,,0.6266,85.5010,,7.533,,1.5717E+03,,1.0000E-12,,6.2984,6.2970,0.9879,,8.426,28.229,,,,,,,,,,,,
CalCOFI,2007SR,022,23,2007_022u,17-Jul-2020 17:50:34,17-Jul-2020 09:50:34,31.75202,-121.31466,090.0 080.0,090.0,080.0,462.000,465.756,,6.3079,,6.3104,,6.3092,34.2012,,34.2014,34.2026,,34.2042,34.2028,0.5950,,0.6040,0.6461,1.9453,,0.7028,0.8417,0.7439,25.877,26.5249,27.6901,84.603,,36.9183,32.3042,,,,,,,,,26.8874,,26.8882,,0.6272,85.4873,,7.533,,1.5710E+03,,1.0000E-12,,6.2665,6.2689,0.9879,,8.628,28.212,,,,,,,,,,,,
CalCOFI,2007SR,022,23,2007_022u,17-Jul-2020 17:50:35,17-Jul-2020 09:50:35,31.75202,-121.31466,090.0 080.0,090.0,080.0,461.000,464.747,,6.2953,,6.2947,,6.2950,34.1983,,34.1985,34.1987,,34.2003,34.1994,0.6063,,0.6158,0.6578,1.9451,,0.7023,0.8412,0.7495,26.367,27.0364,28.2005,84.592,,36.8904,32.5455,,,,,,,,,26.8867,,26.8871,,0.6266,85.5008,,7.533,,1.5697E+03,,1.0000E-12,,6.2539,6.2533,0.9879,,8.789,28.197,,,,,,,,,,,,